Location: Zilina
(49.2167°N, 18.7333°E)
Time: 18:41:23
(UTC+02:00)

ISS - Visible Passes

Search period start: 20 September 2018 00:00
Search period end: 30 September 2018 00:00
Orbit: 403 x 408 km, 51.6° (Epoch: 20 September)

Date Brightness Start Highest point End Pass type
(mag) Time Alt. Az. Time Alt. Az. Time Alt. Az.
22 Sep -2.1 20:27:14 10° SSW 20:28:50 21° S 20:28:50 21° S visible
23 Sep -2.1 19:36:06 10° S 19:38:26 18° SE 19:39:35 15° ESE visible
23 Sep -1.4 21:11:16 10° WSW 21:12:18 19° WSW 21:12:18 19° WSW visible
24 Sep -3.7 20:19:29 10° SW 20:22:42 53° SSE 20:22:51 52° SE visible
25 Sep -3.0 19:27:53 10° SSW 19:30:54 34° SSE 19:33:16 14° E visible
25 Sep -2.1 21:03:59 10° W 21:05:57 33° W 21:05:57 33° W visible
26 Sep -3.9 20:12:02 10° WSW 20:15:21 89° SSE 20:16:13 46° ENE visible
26 Sep -0.4 21:48:47 10° WNW 21:48:54 11° WNW 21:48:54 11° WNW visible
27 Sep -3.7 19:20:11 10° SW 19:23:26 62° SSE 19:26:24 12° ENE visible
27 Sep -2.4 20:56:46 10° W 20:59:04 38° WNW 20:59:04 38° WNW visible
28 Sep -3.6 20:04:44 10° W 20:08:01 64° NNW 20:09:10 36° ENE visible
28 Sep -0.5 21:41:29 10° WNW 21:41:51 12° WNW 21:41:51 12° WNW visible
29 Sep -3.8 19:12:44 10° WSW 19:16:02 82° NNW 19:19:13 11° ENE visible
29 Sep -2.5 20:49:29 10° WNW 20:51:53 40° NW 20:51:53 40° NW visible
